Year,Month,Day,Hour,Minute,Value (Times are PST for temperature in C)
2014,07,11,00,00,18.20
2014,07,11,00,01,18.20
2014,07,11,00,02,18.20
2014,07,11,00,03,18.10
2014,07,11,00,04,18.10
2014,07,11,00,05,18.10
2014,07,11,00,06,18.00
2014,07,11,00,07,18.00
2014,07,11,00,08,17.90
2014,07,11,00,09,17.90
2014,07,11,00,10,17.90
2014,07,11,00,11,17.80
2014,07,11,00,12,17.80
2014,07,11,00,13,17.80
2014,07,11,00,14,17.80
2014,07,11,00,15,17.70
2014,07,11,00,16,17.70
2014,07,11,00,17,17.70
2014,07,11,00,18,17.70
2014,07,11,00,19,17.70
2014,07,11,00,20,17.70
2014,07,11,00,21,17.60
2014,07,11,00,22,17.60
2014,07,11,00,23,17.60
2014,07,11,00,24,17.60
2014,07,11,00,25,17.60
2014,07,11,00,26,17.60
2014,07,11,00,27,17.60
2014,07,11,00,28,17.60
2014,07,11,00,29,17.70
2014,07,11,00,30,17.70
2014,07,11,00,31,17.70
2014,07,11,00,32,17.70
2014,07,11,00,33,17.70
2014,07,11,00,34,17.70
2014,07,11,00,35,17.70
2014,07,11,00,36,17.70
2014,07,11,00,37,17.70
2014,07,11,00,38,17.70
2014,07,11,00,39,17.70
2014,07,11,00,40,17.70
2014,07,11,00,41,17.70
2014,07,11,00,42,17.60
2014,07,11,00,43,17.60
2014,07,11,00,44,17.60
2014,07,11,00,45,17.60
2014,07,11,00,46,17.60
2014,07,11,00,47,17.60
2014,07,11,00,48,17.60
2014,07,11,00,49,17.60
2014,07,11,00,50,17.60
2014,07,11,00,51,17.60
2014,07,11,00,52,17.60
2014,07,11,00,53,17.60
2014,07,11,00,54,17.60
2014,07,11,00,55,17.60
2014,07,11,00,56,17.50
2014,07,11,00,57,17.50
2014,07,11,00,58,17.50
2014,07,11,00,59,17.40
2014,07,11,01,00,17.40
2014,07,11,01,01,17.40
2014,07,11,01,02,17.40
2014,07,11,01,03,17.40
2014,07,11,01,04,17.30
2014,07,11,01,05,17.30
2014,07,11,01,06,17.30
2014,07,11,01,07,17.30
2014,07,11,01,08,17.30
2014,07,11,01,09,17.20
2014,07,11,01,10,17.20
2014,07,11,01,11,17.20
2014,07,11,01,12,17.20
2014,07,11,01,13,17.10
2014,07,11,01,14,17.10
2014,07,11,01,15,17.10
2014,07,11,01,16,17.10
2014,07,11,01,17,17.20
2014,07,11,01,18,17.10
2014,07,11,01,19,17.10
2014,07,11,01,20,17.10
2014,07,11,01,21,17.10
2014,07,11,01,22,17.10
2014,07,11,01,23,17.10
2014,07,11,01,24,17.00
2014,07,11,01,25,17.00
2014,07,11,01,26,17.00
2014,07,11,01,27,17.00
2014,07,11,01,28,17.00
2014,07,11,01,29,16.90
2014,07,11,01,30,16.90
2014,07,11,01,31,16.90
2014,07,11,01,32,16.90
2014,07,11,01,33,16.90
2014,07,11,01,34,16.90
2014,07,11,01,35,16.90
2014,07,11,01,36,16.90
2014,07,11,01,37,16.90
2014,07,11,01,38,16.90
2014,07,11,01,39,16.90
2014,07,11,01,40,16.90
2014,07,11,01,41,16.90
2014,07,11,01,42,16.90
2014,07,11,01,43,16.90
2014,07,11,01,44,16.90
2014,07,11,01,45,16.80
2014,07,11,01,46,16.80
2014,07,11,01,47,16.80
2014,07,11,01,48,16.70
2014,07,11,01,49,16.70
2014,07,11,01,50,16.60
2014,07,11,01,51,16.60
2014,07,11,01,52,16.60
2014,07,11,01,53,16.50
2014,07,11,01,54,16.50
2014,07,11,01,55,16.40
2014,07,11,01,56,16.40
2014,07,11,01,57,16.40
2014,07,11,01,58,16.40
2014,07,11,01,59,16.40
2014,07,11,02,00,16.40
2014,07,11,02,01,16.30
2014,07,11,02,02,16.30
2014,07,11,02,03,16.30
2014,07,11,02,04,16.30
2014,07,11,02,05,16.30
2014,07,11,02,06,16.30
2014,07,11,02,07,16.30
2014,07,11,02,08,16.30
2014,07,11,02,09,16.30
2014,07,11,02,10,16.40
2014,07,11,02,11,16.40
2014,07,11,02,12,16.40
2014,07,11,02,13,16.40
2014,07,11,02,14,16.40
2014,07,11,02,15,16.40
2014,07,11,02,16,16.40
2014,07,11,02,17,16.40
2014,07,11,02,18,16.40
2014,07,11,02,19,16.40
2014,07,11,02,20,16.40
2014,07,11,02,21,16.40
2014,07,11,02,22,16.40
2014,07,11,02,23,16.30
2014,07,11,02,24,16.30
2014,07,11,02,25,16.30
2014,07,11,02,26,16.30
2014,07,11,02,27,16.30
2014,07,11,02,28,16.30
2014,07,11,02,29,16.30
2014,07,11,02,30,16.20
2014,07,11,02,31,16.20
2014,07,11,02,32,16.20
2014,07,11,02,33,16.10
2014,07,11,02,34,16.10
2014,07,11,02,35,16.10
2014,07,11,02,36,16.00
2014,07,11,02,37,16.00
2014,07,11,02,38,15.90
2014,07,11,02,39,15.90
2014,07,11,02,40,15.90
2014,07,11,02,41,15.80
2014,07,11,02,42,15.80
2014,07,11,02,43,15.80
2014,07,11,02,44,15.70
2014,07,11,02,45,15.70
2014,07,11,02,46,15.60
2014,07,11,02,47,15.60
2014,07,11,02,48,15.60
2014,07,11,02,49,15.50
2014,07,11,02,50,15.40
2014,07,11,02,51,15.40
2014,07,11,02,52,15.40
2014,07,11,02,53,15.40
2014,07,11,02,54,15.30
2014,07,11,02,55,15.30
2014,07,11,02,56,15.30
2014,07,11,02,57,15.30
2014,07,11,02,58,15.30
2014,07,11,02,59,15.30
2014,07,11,03,00,15.30
2014,07,11,03,01,15.30
2014,07,11,03,02,15.20
2014,07,11,03,03,15.20
2014,07,11,03,04,15.20
2014,07,11,03,05,15.20
2014,07,11,03,06,15.20
2014,07,11,03,07,15.20
2014,07,11,03,08,15.10
2014,07,11,03,09,15.10
2014,07,11,03,10,15.00
2014,07,11,03,11,15.00
2014,07,11,03,12,15.00
2014,07,11,03,13,14.90
2014,07,11,03,14,14.90
2014,07,11,03,15,14.90
2014,07,11,03,16,14.80
2014,07,11,03,17,14.80
2014,07,11,03,18,14.80
2014,07,11,03,19,14.80
2014,07,11,03,20,14.80
2014,07,11,03,21,14.80
2014,07,11,03,22,14.80
2014,07,11,03,23,14.80
2014,07,11,03,24,14.80
2014,07,11,03,25,14.80
2014,07,11,03,26,14.80
2014,07,11,03,27,14.80
2014,07,11,03,28,14.80
2014,07,11,03,29,14.80
2014,07,11,03,30,14.80
2014,07,11,03,31,14.80
2014,07,11,03,32,14.80
2014,07,11,03,33,14.80
2014,07,11,03,34,14.80
2014,07,11,03,35,14.80
2014,07,11,03,36,14.70
2014,07,11,03,37,14.70
2014,07,11,03,38,14.70
2014,07,11,03,39,14.70
2014,07,11,03,40,14.70
2014,07,11,03,41,14.70
2014,07,11,03,42,14.60
2014,07,11,03,43,14.60
2014,07,11,03,44,14.60
2014,07,11,03,45,14.60
2014,07,11,03,46,14.60
2014,07,11,03,47,14.60
2014,07,11,03,48,14.60
2014,07,11,03,49,14.60
2014,07,11,03,50,14.50
2014,07,11,03,51,14.50
2014,07,11,03,52,14.50
2014,07,11,03,53,14.50
2014,07,11,03,54,14.40
2014,07,11,03,55,14.40
2014,07,11,03,56,14.40
2014,07,11,03,57,14.40
2014,07,11,03,58,14.40
2014,07,11,03,59,14.30
2014,07,11,04,00,14.30
2014,07,11,04,01,14.30
2014,07,11,04,02,14.30
2014,07,11,04,03,14.30
2014,07,11,04,04,14.30
2014,07,11,04,05,14.30
2014,07,11,04,06,14.30
2014,07,11,04,07,14.30
2014,07,11,04,08,14.20
2014,07,11,04,09,14.20
2014,07,11,04,10,14.20
2014,07,11,04,11,14.20
2014,07,11,04,12,14.20
2014,07,11,04,13,14.20
2014,07,11,04,14,14.20
2014,07,11,04,15,14.20
2014,07,11,04,16,14.10
2014,07,11,04,17,14.10
2014,07,11,04,18,14.10
2014,07,11,04,19,14.10
2014,07,11,04,20,14.10
2014,07,11,04,21,14.10
2014,07,11,04,22,14.00
2014,07,11,04,23,14.00
2014,07,11,04,24,14.00
2014,07,11,04,25,14.00
2014,07,11,04,26,14.00
2014,07,11,04,27,13.90
2014,07,11,04,28,13.90
2014,07,11,04,29,13.90
2014,07,11,04,30,13.90
2014,07,11,04,31,13.90
2014,07,11,04,32,13.90
2014,07,11,04,33,13.90
2014,07,11,04,34,13.80
2014,07,11,04,35,13.80
2014,07,11,04,36,13.80
2014,07,11,04,37,13.80
2014,07,11,04,38,13.80
2014,07,11,04,39,13.70
2014,07,11,04,40,13.70
2014,07,11,04,41,13.70
2014,07,11,04,42,13.60
2014,07,11,04,43,13.60
2014,07,11,04,44,13.60
2014,07,11,04,45,13.60
2014,07,11,04,46,13.50
2014,07,11,04,47,13.50
2014,07,11,04,48,13.50
2014,07,11,04,49,13.50
2014,07,11,04,50,13.50
2014,07,11,04,51,13.50
2014,07,11,04,52,13.50
2014,07,11,04,53,13.50
2014,07,11,04,54,13.50
2014,07,11,04,55,13.50
2014,07,11,04,56,13.50
2014,07,11,04,57,13.50
2014,07,11,04,58,13.50
2014,07,11,04,59,13.50
2014,07,11,05,00,13.50
2014,07,11,05,01,13.50
2014,07,11,05,02,13.50
2014,07,11,05,03,13.50
2014,07,11,05,04,13.50
2014,07,11,05,05,13.50
2014,07,11,05,06,13.50
2014,07,11,05,07,13.50
2014,07,11,05,08,13.50
2014,07,11,05,09,13.50
2014,07,11,05,10,13.50
2014,07,11,05,11,13.50
2014,07,11,05,12,13.50
2014,07,11,05,13,13.50
2014,07,11,05,14,13.50
2014,07,11,05,15,13.50
2014,07,11,05,16,13.50
2014,07,11,05,17,13.50
2014,07,11,05,18,13.50
2014,07,11,05,19,13.50
2014,07,11,05,20,13.50
2014,07,11,05,21,13.50
2014,07,11,05,22,13.50
2014,07,11,05,23,13.50
2014,07,11,05,24,13.40
2014,07,11,05,25,13.40
2014,07,11,05,26,13.40
2014,07,11,05,27,13.40
2014,07,11,05,28,13.30
2014,07,11,05,29,13.30
2014,07,11,05,30,13.30
2014,07,11,05,31,13.30
2014,07,11,05,32,13.30
2014,07,11,05,33,13.20
2014,07,11,05,34,13.20
2014,07,11,05,35,13.20
2014,07,11,05,36,13.20
2014,07,11,05,37,13.20
2014,07,11,05,38,13.20
2014,07,11,05,39,13.20
2014,07,11,05,40,13.20
2014,07,11,05,41,13.20
2014,07,11,05,42,13.20
2014,07,11,05,43,13.20
2014,07,11,05,44,13.20
2014,07,11,05,45,13.10
2014,07,11,05,46,13.10
2014,07,11,05,47,13.10
2014,07,11,05,48,13.10
2014,07,11,05,49,13.10
2014,07,11,05,50,13.10
2014,07,11,05,51,13.10
2014,07,11,05,52,13.10
2014,07,11,05,53,13.20
2014,07,11,05,54,13.20
2014,07,11,05,55,13.20
2014,07,11,05,56,13.20
2014,07,11,05,57,13.20
2014,07,11,05,58,13.20
2014,07,11,05,59,13.20
2014,07,11,06,00,13.20
2014,07,11,06,01,13.20
2014,07,11,06,02,13.20
2014,07,11,06,03,13.20
2014,07,11,06,04,13.20
2014,07,11,06,05,13.20
2014,07,11,06,06,13.20
2014,07,11,06,07,13.30
2014,07,11,06,08,13.30
2014,07,11,06,09,13.30
2014,07,11,06,10,13.30
2014,07,11,06,11,13.40
2014,07,11,06,12,13.40
2014,07,11,06,13,13.40
2014,07,11,06,14,13.40
2014,07,11,06,15,13.50
2014,07,11,06,16,13.50
2014,07,11,06,17,13.60
2014,07,11,06,18,13.60
2014,07,11,06,19,13.60
2014,07,11,06,20,13.60
2014,07,11,06,21,13.60
2014,07,11,06,22,13.60
2014,07,11,06,23,13.60
2014,07,11,06,24,13.60
2014,07,11,06,25,13.70
2014,07,11,06,26,13.70
2014,07,11,06,27,13.70
2014,07,11,06,28,13.70
2014,07,11,06,29,13.70
2014,07,11,06,30,13.70
2014,07,11,06,31,13.80
2014,07,11,06,32,13.80
2014,07,11,06,33,13.80
2014,07,11,06,34,13.80
2014,07,11,06,35,13.90
2014,07,11,06,36,13.90
2014,07,11,06,37,13.90
2014,07,11,06,38,14.00
2014,07,11,06,39,14.00
2014,07,11,06,40,14.00
2014,07,11,06,41,14.10
2014,07,11,06,42,14.10
2014,07,11,06,43,14.10
2014,07,11,06,44,14.10
2014,07,11,06,45,14.10
2014,07,11,06,46,14.10
2014,07,11,06,47,14.10
2014,07,11,06,48,14.20
2014,07,11,06,49,14.20
2014,07,11,06,50,14.20
2014,07,11,06,51,14.30
2014,07,11,06,52,14.30
2014,07,11,06,53,14.30
2014,07,11,06,54,14.40
2014,07,11,06,55,14.40
2014,07,11,06,56,14.40
2014,07,11,06,57,14.40
2014,07,11,06,58,14.50
2014,07,11,06,59,14.60
2014,07,11,07,00,14.60
2014,07,11,07,01,14.60
2014,07,11,07,02,14.70
2014,07,11,07,03,14.80
2014,07,11,07,04,14.80
2014,07,11,07,05,14.90
2014,07,11,07,06,15.00
2014,07,11,07,07,15.10
2014,07,11,07,08,15.10
2014,07,11,07,09,15.20
2014,07,11,07,10,15.20
2014,07,11,07,11,15.20
2014,07,11,07,12,15.30
2014,07,11,07,13,15.30
2014,07,11,07,14,15.40
2014,07,11,07,15,15.40
2014,07,11,07,16,15.50
2014,07,11,07,17,15.60
2014,07,11,07,18,15.70
2014,07,11,07,19,15.70
2014,07,11,07,20,15.80
2014,07,11,07,21,15.90
2014,07,11,07,22,16.00
2014,07,11,07,23,16.00
2014,07,11,07,24,16.10
2014,07,11,07,25,16.20
2014,07,11,07,26,16.20
2014,07,11,07,27,16.20
2014,07,11,07,28,16.30
2014,07,11,07,29,16.30
2014,07,11,07,30,16.30
2014,07,11,07,31,16.30
2014,07,11,07,32,16.40
2014,07,11,07,33,16.40
2014,07,11,07,34,16.50
2014,07,11,07,35,16.50
2014,07,11,07,36,16.50
2014,07,11,07,37,16.60
2014,07,11,07,38,16.60
2014,07,11,07,39,16.70
2014,07,11,07,40,16.70
2014,07,11,07,41,16.70
2014,07,11,07,42,16.80
2014,07,11,07,43,16.80
2014,07,11,07,44,16.90
2014,07,11,07,45,16.90
2014,07,11,07,46,17.00
2014,07,11,07,47,17.00
2014,07,11,07,48,17.10
2014,07,11,07,49,17.10
2014,07,11,07,50,17.10
2014,07,11,07,51,17.10
2014,07,11,07,52,17.10
2014,07,11,07,53,17.20
2014,07,11,07,54,17.20
2014,07,11,07,55,17.20
2014,07,11,07,56,17.20
2014,07,11,07,57,17.20
2014,07,11,07,58,17.20
2014,07,11,07,59,17.20
2014,07,11,08,00,17.20
2014,07,11,08,01,17.20
2014,07,11,08,02,17.30
2014,07,11,08,03,17.30
2014,07,11,08,04,17.30
2014,07,11,08,05,17.30
2014,07,11,08,06,17.30
2014,07,11,08,07,17.30
2014,07,11,08,08,17.30
2014,07,11,08,09,17.30
2014,07,11,08,10,17.40
2014,07,11,08,11,17.40
2014,07,11,08,12,17.50
2014,07,11,08,13,17.50
2014,07,11,08,14,17.60
2014,07,11,08,15,17.60
2014,07,11,08,16,17.60
2014,07,11,08,17,17.70
2014,07,11,08,18,17.70
2014,07,11,08,19,17.70
2014,07,11,08,20,17.80
2014,07,11,08,21,17.80
2014,07,11,08,22,17.80
2014,07,11,08,23,17.90
2014,07,11,08,24,17.90
2014,07,11,08,25,18.00
2014,07,11,08,26,18.00
2014,07,11,08,27,18.10
2014,07,11,08,28,18.10
2014,07,11,08,29,18.20
2014,07,11,08,30,18.20
2014,07,11,08,31,18.20
2014,07,11,08,32,18.20
2014,07,11,08,33,18.30
2014,07,11,08,34,18.30
2014,07,11,08,35,18.30
2014,07,11,08,36,18.40
2014,07,11,08,37,18.40
2014,07,11,08,38,18.40
2014,07,11,08,39,18.40
2014,07,11,08,40,18.40
2014,07,11,08,41,18.40
2014,07,11,08,42,18.50
2014,07,11,08,43,18.50
2014,07,11,08,44,18.60
2014,07,11,08,45,18.70
2014,07,11,08,46,18.70
2014,07,11,08,47,18.70
2014,07,11,08,48,18.80
2014,07,11,08,49,18.80
2014,07,11,08,50,18.80
2014,07,11,08,51,18.90
2014,07,11,08,52,19.00
2014,07,11,08,53,19.00
2014,07,11,08,54,19.10
2014,07,11,08,55,19.20
2014,07,11,08,56,19.30
2014,07,11,08,57,19.40
2014,07,11,08,58,19.50
2014,07,11,08,59,19.60
2014,07,11,09,00,19.60
2014,07,11,09,01,19.70
2014,07,11,09,02,19.80
2014,07,11,09,03,19.80
2014,07,11,09,04,19.90
2014,07,11,09,05,19.90
2014,07,11,09,06,19.90
2014,07,11,09,07,19.90
2014,07,11,09,08,19.90
2014,07,11,09,09,20.00
2014,07,11,09,10,20.00
2014,07,11,09,11,20.00
2014,07,11,09,12,20.10
2014,07,11,09,13,20.10
2014,07,11,09,14,20.10
2014,07,11,09,15,20.20
2014,07,11,09,16,20.20
2014,07,11,09,17,20.30
2014,07,11,09,18,20.30
2014,07,11,09,19,20.30
2014,07,11,09,20,20.30
2014,07,11,09,21,20.30
2014,07,11,09,22,20.30
2014,07,11,09,23,20.40
2014,07,11,09,24,20.40
2014,07,11,09,25,20.40
2014,07,11,09,26,20.40
2014,07,11,09,27,20.40
2014,07,11,09,28,20.40
2014,07,11,09,29,20.40
2014,07,11,09,30,20.40
2014,07,11,09,31,20.50
2014,07,11,09,32,20.50
2014,07,11,09,33,20.60
2014,07,11,09,34,20.70
2014,07,11,09,35,20.70
2014,07,11,09,36,20.80
2014,07,11,09,37,20.90
2014,07,11,09,38,20.90
2014,07,11,09,39,21.00
2014,07,11,09,40,21.00
2014,07,11,09,41,21.00
2014,07,11,09,42,21.10
2014,07,11,09,43,21.20
2014,07,11,09,44,21.20
2014,07,11,09,45,21.30
2014,07,11,09,46,21.30
2014,07,11,09,47,21.30
2014,07,11,09,48,21.30
2014,07,11,09,49,21.30
2014,07,11,09,50,21.30
2014,07,11,09,51,21.30
2014,07,11,09,52,21.30
2014,07,11,09,53,21.30
2014,07,11,09,54,21.40
2014,07,11,09,55,21.40
2014,07,11,09,56,21.40
2014,07,11,09,57,21.40
2014,07,11,09,58,21.50
2014,07,11,09,59,21.60
2014,07,11,10,00,21.60
2014,07,11,10,01,21.60
2014,07,11,10,02,21.70
2014,07,11,10,03,21.70
2014,07,11,10,04,21.80
2014,07,11,10,05,21.80
2014,07,11,10,06,21.80
2014,07,11,10,07,21.80
2014,07,11,10,08,21.90
2014,07,11,10,09,21.90
2014,07,11,10,10,21.90
2014,07,11,10,11,21.90
2014,07,11,10,12,22.00
2014,07,11,10,13,22.00
2014,07,11,10,14,22.10
2014,07,11,10,15,22.10
2014,07,11,10,16,22.10
2014,07,11,10,17,22.10
2014,07,11,10,18,22.20
2014,07,11,10,19,22.20
2014,07,11,10,20,22.20
2014,07,11,10,21,22.30
2014,07,11,10,22,22.30
2014,07,11,10,23,22.30
2014,07,11,10,24,22.40
2014,07,11,10,25,22.40
2014,07,11,10,26,22.40
2014,07,11,10,27,22.50
2014,07,11,10,28,22.50
2014,07,11,10,29,22.60
2014,07,11,10,30,22.60
2014,07,11,10,31,22.70
2014,07,11,10,32,22.80
2014,07,11,10,33,22.80
2014,07,11,10,34,22.90
2014,07,11,10,35,22.90
2014,07,11,10,36,22.90
2014,07,11,10,37,22.90
2014,07,11,10,38,23.00
2014,07,11,10,39,23.00
2014,07,11,10,40,23.00
2014,07,11,10,41,23.00
2014,07,11,10,42,23.10
2014,07,11,10,43,23.20
2014,07,11,10,44,23.30
2014,07,11,10,45,23.40
2014,07,11,10,46,23.40
2014,07,11,10,47,23.40
2014,07,11,10,48,23.50
2014,07,11,10,49,23.50
2014,07,11,10,50,23.60
2014,07,11,10,51,23.60
2014,07,11,10,52,23.70
2014,07,11,10,53,23.80
2014,07,11,10,54,23.90
2014,07,11,10,55,23.90
2014,07,11,10,56,24.00
2014,07,11,10,57,24.10
2014,07,11,10,58,24.10
2014,07,11,10,59,24.20
2014,07,11,11,00,24.20
2014,07,11,11,01,24.20
2014,07,11,11,02,24.20
2014,07,11,11,03,24.30
2014,07,11,11,04,24.30
2014,07,11,11,05,24.30
2014,07,11,11,06,24.30
2014,07,11,11,07,24.40
2014,07,11,11,08,24.30
2014,07,11,11,09,24.30
2014,07,11,11,10,24.30
2014,07,11,11,11,24.30
2014,07,11,11,12,24.30
2014,07,11,11,13,24.30
2014,07,11,11,14,24.40
2014,07,11,11,15,24.50
2014,07,11,11,16,24.50
2014,07,11,11,17,24.60
2014,07,11,11,18,24.60
2014,07,11,11,19,24.60
2014,07,11,11,20,24.70
2014,07,11,11,21,24.70
2014,07,11,11,22,24.70
2014,07,11,11,23,24.70
2014,07,11,11,24,24.70
2014,07,11,11,25,24.80
2014,07,11,11,26,24.90
2014,07,11,11,27,24.90
2014,07,11,11,28,24.90
2014,07,11,11,29,25.00
2014,07,11,11,30,25.00
2014,07,11,11,31,25.00
2014,07,11,11,32,25.00
2014,07,11,11,33,25.10
2014,07,11,11,34,25.10
2014,07,11,11,35,25.10
2014,07,11,11,36,25.10
2014,07,11,11,37,25.20
2014,07,11,11,38,25.20
2014,07,11,11,39,25.30
2014,07,11,11,40,25.40
2014,07,11,11,41,25.40
2014,07,11,11,42,25.50
2014,07,11,11,43,25.50
2014,07,11,11,44,25.50
2014,07,11,11,45,25.50
2014,07,11,11,46,25.40
2014,07,11,11,47,25.40
2014,07,11,11,48,25.40
2014,07,11,11,49,25.40
2014,07,11,11,50,25.40
2014,07,11,11,51,25.40
2014,07,11,11,52,25.50
2014,07,11,11,53,25.60
2014,07,11,11,54,25.60
2014,07,11,11,55,25.70
2014,07,11,11,56,25.80
2014,07,11,11,57,25.80
2014,07,11,11,58,25.90
2014,07,11,11,59,25.90
2014,07,11,12,00,25.90
2014,07,11,12,01,25.90
2014,07,11,12,02,25.90
2014,07,11,12,03,25.90
2014,07,11,12,04,25.90
2014,07,11,12,05,25.90
2014,07,11,12,06,25.90
2014,07,11,12,07,25.80
2014,07,11,12,08,25.80
2014,07,11,12,09,25.90
2014,07,11,12,10,25.90
2014,07,11,12,11,26.00
2014,07,11,12,12,26.00
2014,07,11,12,13,26.10
2014,07,11,12,14,26.20
2014,07,11,12,15,26.30
2014,07,11,12,16,26.30
2014,07,11,12,17,26.30
2014,07,11,12,18,26.30
2014,07,11,12,19,26.40
2014,07,11,12,20,26.40
2014,07,11,12,21,26.40
2014,07,11,12,22,26.40
2014,07,11,12,23,26.40
2014,07,11,12,24,26.40
2014,07,11,12,25,26.40
2014,07,11,12,26,26.40
2014,07,11,12,27,26.40
2014,07,11,12,28,26.50
2014,07,11,12,29,26.50
2014,07,11,12,30,26.50
2014,07,11,12,31,26.60
2014,07,11,12,32,26.60
2014,07,11,12,33,26.60
2014,07,11,12,34,26.70
2014,07,11,12,35,26.70
2014,07,11,12,36,26.80
2014,07,11,12,37,26.80
2014,07,11,12,38,26.80
2014,07,11,12,39,26.90
2014,07,11,12,40,26.90
2014,07,11,12,41,26.80
2014,07,11,12,42,26.80
2014,07,11,12,43,26.90
2014,07,11,12,44,26.90
2014,07,11,12,45,26.90
2014,07,11,12,46,26.90
2014,07,11,12,47,26.80
2014,07,11,12,48,26.90
2014,07,11,12,49,26.90
2014,07,11,12,50,26.90
2014,07,11,12,51,27.00
2014,07,11,12,52,27.10
2014,07,11,12,53,27.20
2014,07,11,12,54,27.20
2014,07,11,12,55,27.30
2014,07,11,12,56,27.30
2014,07,11,12,57,27.30
2014,07,11,12,58,27.20
2014,07,11,12,59,27.20
2014,07,11,13,00,27.20
2014,07,11,13,01,27.20
2014,07,11,13,02,27.30
2014,07,11,13,03,27.30
2014,07,11,13,04,27.30
2014,07,11,13,05,27.30
2014,07,11,13,06,27.30
2014,07,11,13,07,27.40
2014,07,11,13,08,27.50
2014,07,11,13,09,27.60
2014,07,11,13,10,27.70
2014,07,11,13,11,27.70
2014,07,11,13,12,27.70
2014,07,11,13,13,27.70
2014,07,11,13,14,27.70
2014,07,11,13,15,27.70
2014,07,11,13,16,27.70
2014,07,11,13,17,27.70
2014,07,11,13,18,27.80
2014,07,11,13,19,27.80
2014,07,11,13,20,27.80
2014,07,11,13,21,27.90
2014,07,11,13,22,28.00
2014,07,11,13,23,28.00
2014,07,11,13,24,28.10
2014,07,11,13,25,28.10
2014,07,11,13,26,28.10
2014,07,11,13,27,28.10
2014,07,11,13,28,28.20
2014,07,11,13,29,28.20
2014,07,11,13,30,28.20
2014,07,11,13,31,28.20
2014,07,11,13,32,28.20
2014,07,11,13,33,28.20
2014,07,11,13,34,28.20
2014,07,11,13,35,28.20
2014,07,11,13,36,28.20
2014,07,11,13,37,28.30
2014,07,11,13,38,28.30
2014,07,11,13,39,28.40
2014,07,11,13,40,28.50
2014,07,11,13,41,28.50
2014,07,11,13,42,28.60
2014,07,11,13,43,28.60
2014,07,11,13,44,28.60
2014,07,11,13,45,28.70
2014,07,11,13,46,28.70
2014,07,11,13,47,28.70
2014,07,11,13,48,28.80
2014,07,11,13,49,28.80
2014,07,11,13,50,28.80
2014,07,11,13,51,28.90
2014,07,11,13,52,28.90
2014,07,11,13,53,28.90
2014,07,11,13,54,28.90
2014,07,11,13,55,28.90
2014,07,11,13,56,29.00
2014,07,11,13,57,29.00
2014,07,11,13,58,29.00
2014,07,11,13,59,29.00
2014,07,11,14,00,29.10
2014,07,11,14,01,29.10
2014,07,11,14,02,29.10
2014,07,11,14,03,29.10
2014,07,11,14,04,29.10
2014,07,11,14,05,29.10
2014,07,11,14,06,29.20
2014,07,11,14,07,29.30
2014,07,11,14,08,29.30
2014,07,11,14,09,29.50
2014,07,11,14,10,29.60
2014,07,11,14,11,29.60
2014,07,11,14,12,29.60
2014,07,11,14,13,29.60
2014,07,11,14,14,29.60
2014,07,11,14,15,29.70
2014,07,11,14,16,29.70
2014,07,11,14,17,29.70
2014,07,11,14,18,29.70
2014,07,11,14,19,29.70
2014,07,11,14,20,29.60
2014,07,11,14,21,29.60
2014,07,11,14,22,29.60
2014,07,11,14,23,29.50
2014,07,11,14,24,29.50
2014,07,11,14,25,29.50
2014,07,11,14,26,29.40
2014,07,11,14,27,29.40
2014,07,11,14,28,29.30
2014,07,11,14,29,29.20
2014,07,11,14,30,29.10
2014,07,11,14,31,29.00
2014,07,11,14,32,28.90
2014,07,11,14,33,28.90
2014,07,11,14,34,28.80
2014,07,11,14,35,28.70
2014,07,11,14,36,28.70
2014,07,11,14,37,28.60
2014,07,11,14,38,28.60
2014,07,11,14,39,28.60
2014,07,11,14,40,28.60
2014,07,11,14,41,28.60
2014,07,11,14,42,28.60
2014,07,11,14,43,28.60
2014,07,11,14,44,28.60
2014,07,11,14,45,28.50
2014,07,11,14,46,28.40
2014,07,11,14,47,28.20
2014,07,11,14,48,28.10
2014,07,11,14,49,27.90
2014,07,11,14,50,27.80
2014,07,11,14,51,27.60
2014,07,11,14,52,27.40
2014,07,11,14,53,27.30
2014,07,11,14,54,27.10
2014,07,11,14,55,27.10
2014,07,11,14,56,27.10
2014,07,11,14,57,27.00
2014,07,11,14,58,27.00
2014,07,11,14,59,26.90
2014,07,11,15,00,26.80
2014,07,11,15,01,26.80
2014,07,11,15,02,26.70
2014,07,11,15,03,26.60
2014,07,11,15,04,26.60
2014,07,11,15,05,26.50
2014,07,11,15,06,26.40
2014,07,11,15,07,26.40
2014,07,11,15,08,26.40
2014,07,11,15,09,26.40
2014,07,11,15,10,26.40
2014,07,11,15,11,26.40
2014,07,11,15,12,26.40
2014,07,11,15,13,26.40
2014,07,11,15,14,26.40
2014,07,11,15,15,26.40
2014,07,11,15,16,26.30
2014,07,11,15,17,26.30
2014,07,11,15,18,26.30
2014,07,11,15,19,26.30
2014,07,11,15,20,26.30
2014,07,11,15,21,26.40
2014,07,11,15,22,26.40
2014,07,11,15,23,26.40
2014,07,11,15,24,26.40
2014,07,11,15,25,26.40
2014,07,11,15,26,26.50
2014,07,11,15,27,26.60
2014,07,11,15,28,26.70
2014,07,11,15,29,26.90
2014,07,11,15,30,27.00
2014,07,11,15,31,27.20
2014,07,11,15,32,27.30
2014,07,11,15,33,27.40
2014,07,11,15,34,27.40
2014,07,11,15,35,27.50
2014,07,11,15,36,27.60
2014,07,11,15,37,27.70
2014,07,11,15,38,27.80
2014,07,11,15,39,27.80
2014,07,11,15,40,27.90
2014,07,11,15,41,27.90
2014,07,11,15,42,27.80
2014,07,11,15,43,27.90
2014,07,11,15,44,27.90
2014,07,11,15,45,28.00
2014,07,11,15,46,28.00
2014,07,11,15,47,28.00
2014,07,11,15,48,28.00
2014,07,11,15,49,28.10
2014,07,11,15,50,28.20
2014,07,11,15,51,28.30
2014,07,11,15,52,28.30
2014,07,11,15,53,28.30
2014,07,11,15,54,28.30
2014,07,11,15,55,28.30
2014,07,11,15,56,28.40
2014,07,11,15,57,28.40
2014,07,11,15,58,28.40
2014,07,11,15,59,28.50
2014,07,11,16,00,28.50
2014,07,11,16,01,28.40
2014,07,11,16,02,28.30
2014,07,11,16,03,28.20
2014,07,11,16,04,28.00
2014,07,11,16,05,27.90
2014,07,11,16,06,27.80
2014,07,11,16,07,27.70
2014,07,11,16,08,27.60
2014,07,11,16,09,27.50
2014,07,11,16,10,27.40
2014,07,11,16,11,27.40
2014,07,11,16,12,27.30
2014,07,11,16,13,27.30
2014,07,11,16,14,27.20
2014,07,11,16,15,27.20
2014,07,11,16,16,27.20
2014,07,11,16,17,27.30
2014,07,11,16,18,27.30
2014,07,11,16,19,27.20
2014,07,11,16,20,27.20
2014,07,11,16,21,27.20
2014,07,11,16,22,27.20
2014,07,11,16,23,27.20
2014,07,11,16,24,27.20
2014,07,11,16,25,27.20
2014,07,11,16,26,27.10
2014,07,11,16,27,27.10
2014,07,11,16,28,27.10
2014,07,11,16,29,27.10
2014,07,11,16,30,27.10
2014,07,11,16,31,27.00
2014,07,11,16,32,27.10
2014,07,11,16,33,27.10
2014,07,11,16,34,27.10
2014,07,11,16,35,27.20
2014,07,11,16,36,27.20
2014,07,11,16,37,27.30
2014,07,11,16,38,27.30
2014,07,11,16,39,27.30
2014,07,11,16,40,27.30
2014,07,11,16,41,27.40
2014,07,11,16,42,27.50
2014,07,11,16,43,27.50
2014,07,11,16,44,27.60
2014,07,11,16,45,27.70
2014,07,11,16,46,27.70
2014,07,11,16,47,27.70
2014,07,11,16,48,27.70
2014,07,11,16,49,27.70
2014,07,11,16,50,27.70
2014,07,11,16,51,27.80
2014,07,11,16,52,27.80
2014,07,11,16,53,27.80
2014,07,11,16,54,27.90
2014,07,11,16,55,27.90
2014,07,11,16,56,27.90
2014,07,11,16,57,27.90
2014,07,11,16,58,27.90
2014,07,11,16,59,27.90
2014,07,11,17,00,27.90
2014,07,11,17,01,28.00
2014,07,11,17,02,28.10
2014,07,11,17,03,28.30
2014,07,11,17,04,28.30
2014,07,11,17,05,28.40
2014,07,11,17,06,28.50
2014,07,11,17,07,28.50
2014,07,11,17,08,28.60
2014,07,11,17,09,28.70
2014,07,11,17,10,28.80
2014,07,11,17,11,28.90
2014,07,11,17,12,29.00
2014,07,11,17,13,29.00
2014,07,11,17,14,29.00
2014,07,11,17,15,29.00
2014,07,11,17,16,29.00
2014,07,11,17,17,29.00
2014,07,11,17,18,29.00
2014,07,11,17,19,28.90